Location: Huntington
(40.8831°N, 85.4975°W)
Time: 00:56:51
(UTC-04:00)

Envisat - Pass Details

Date: 18 April 2021
Orbit: 764 x 766 km, 98.1° (Epoch: 17 May)

Event Time Altitude Azimuth Distance (km) Brightness Sun altitude
Rises 05:51:24 0° 34° (NE) 3,237 7.4 -12.6°
Reaches altitude 10° 05:55:07 10° 62° (ENE) 2,304 7.0 -12.0°
Maximum altitude 05:57:23 13° 89° (E) 2,099 6.3 -11.6°
Drops below altitude 10° 05:59:40 10° 116° (ESE) 2,296 6.0 -11.2°
Sets 06:03:19 0° 144° (SE) 3,216 6.4 -10.6°
